Regional Weather Roundup
Issued by NWS

Home | Current Version | Previous Version | Graphics & Text | Print | Product List | Glossary Off
Versions: 1 2 3 4 5 6 7 8 9 10 11 12 13 14 15 16 17 18 19 20 21 22 23 24 25 26 27 28 29 30 31 32 33 34 35 36 37 38 39 40 41 42 43 44 45 46 47 48 49 50

000
ASUS43 KMPX 301710
RWRMN
WEATHER ROUNDUP FOR MINNESOTA
NATIONAL WEATHER SERVICE TWIN CITIES/CHANHASSEN MN
1200 PM CDT MON MAR 30 2015


NOTE: "FAIR" INDICATES FEW OR NO CLOUDS BELOW 12,000 FEET WITH NO
SIGNIFICANT WEATHER AND/OR OBSTRUCTIONS TO VISIBILITY. N/A MEANS
CURRENT SKY AND/OR WEATHER CONDITIONS ARE NOT AVAILABLE.

MNZ060>063-068>070-301800-
   Twin Cities Metro

CITY           SKY/WX    TMP DP  RH WIND       PRES   REMARKS
TWIN CITIES    CLOUDY    46  30  53 SE5       29.94F
ST PAUL        CLOUDY    47  30  51 SE6       29.96S
CRYSTAL        CLOUDY    48  29  47 E7        29.92F
BLAINE         CLOUDY    48  32  53 MISG      29.94S
LAKEVILLE      CLOUDY    46  32  57 E9        29.93F
EDEN PRAIRIE   CLOUDY    46  29  51 E7        29.92F
SOUTH ST PAUL  CLOUDY    46  30  54 S7        29.95S
LAKE ELMO      CLOUDY    45  32  61 E5        29.96F
$$
MNZ001>005-007-008-013>017-022>024-027-028-301800-
   Northwest Minnesota

CITY           SKY/WX    TMP DP  RH WIND       PRES   REMARKS
BEMIDJI        CLOUDY    42  32  68 E6        29.86F
HALLOCK        LGT RAIN  41  37  87 NW6       29.87R
ROSEAU         CLOUDY    41  34  75 SW9       29.85S
WARROAD        CLOUDY    43  34  70 SW7       29.86S
THIEF RVR FALL CLOUDY    43  32  65 E10       29.83F
CROOKSTON      PTSUNNY   46  34  61 E9        29.82F
FOSSTON        RAIN      39  34  81 E5        29.83F
DETROIT LAKES  CLOUDY    45  32  61 E10       29.84F
MOORHEAD       CLOUDY    52  36  54 SE13      29.82F
PARK RAPIDS    CLOUDY    43  33  68 E6        29.86S
MAHNOMEN       CLOUDY    44  36  75 SE9       29.83F
$$
MNZ006-009>011-018-025>026-301800-
   North Central Minnesota

CITY           SKY/WX    TMP DP  RH WIND       PRES   REMARKS
BAUDETTE       CLOUDY    43  31  62 S8        29.84S
FLAG ISLAND    PTSUNNY   34  28  80 E6        29.84S WCI  29
INTL FALLS     PTSUNNY   46  23  40 CALM      29.86F
WASKISH        CLOUDY    41  30  65 CALM      29.86F
BIG FORK       CLOUDY    48  30  49 S9        29.86F
LONGVILLE      DRIZZLE   43  30  61 CALM      29.88F
GRAND RAPIDS   CLOUDY    45  28  53 SW9       29.89F
ORR            PTSUNNY   46  19  34 CALM      29.85S
COOK           PTSUNNY   46  25  42 SW5       29.87F
WALKER         LGT RAIN  40  31  72 CALM      29.86F
$$
MNZ012-019>021-037-301800-
   Northeast Minnesota

CITY           SKY/WX    TMP DP  RH WIND       PRES   REMARKS
DULUTH         CLOUDY    49  22  34 W7        29.90F
ELY            MOSUNNY   46  19  34 NW7       29.87F
HIBBING        CLOUDY    47  21  35 CALM      29.88F
EVELETH        PTSUNNY   46  25  42 S3        29.89F
DULUTH HARBOR  CLOUDY    48  28  46 CALM      29.93F
TWO HARBORS    PTSUNNY   54  28  37 W7        29.88F
SILVER BAY     MOSUNNY   54  21  28 W7        29.87F
GRAND MARAIS     N/A     38  29  70 SW7       29.91R
G MARAIS ARPRT SUNNY     41  19  42 W5        29.87S
$$
MNZ029>031-032-039>041-046>048-054>057-064-301800-
   West Central Minnesota

CITY           SKY/WX    TMP DP  RH WIND       PRES   REMARKS
FERGUS FALLS   CLOUDY    50  28  43 SE10      29.86F
WHEATON        MOSUNNY   57  34  41 W5        29.83F
MORRIS         MOSUNNY   54  37  54 SE9       29.83F
ALEXANDRIA     CLOUDY    46  31  55 SE10      29.86S
ELBOW LAKE     CLOUDY    46  32  57 SE8       29.84S
WADENA         CLOUDY    50  30  46 E12       29.86S
GLENWOOD       CLOUDY    46  34  61 SE9       29.86F
APPLETON       MOSUNNY   63  30  29 W3        29.83F
BENSON         PTSUNNY   52  30  43 S6        29.85F
ORTONVILLE     SUNNY     64  30  27 W12       29.82F
MADISON        SUNNY     66  27  22 W18G26    29.83F
WILLMAR        FAIR      50  32  50 SE7       29.88F
$$
MNZ033>034-036-042>043-049>051-058-059-301800-
   Central Minnesota

CITY           SKY/WX    TMP DP  RH WIND       PRES   REMARKS
ST CLOUD       CLOUDY    45  33  63 E7        29.89F
SAUK CENTRE    CLOUDY    44  33  66 SE8       29.85F
PAYNESVILLE    CLOUDY    42  31  65 E5        29.88F
AITKIN         MIX PCPN  41  36  81 NE3       29.90F
PINE RIVER     DRIZZLE   39  36  87 NE5       29.92F
BRAINERD       CLOUDY    44  33  65 E7        29.91S
STAPLES        CLOUDY    50  27  40 E8        29.86F
LONG PRAIRIE   CLOUDY    45  32  61 E8        29.87F
LITTLE FALLS   LGT RAIN  45  32  61 E7        29.89F
LITCHFIELD     CLOUDY    48  30  49 CALM      29.89F
BUFFALO        CLOUDY    45  30  57 E6        29.93F
MAPLE LAKE     CLOUDY    45  33  63 E6        29.92F
$$
MNZ037-044-045-052-053-301800-
   East Central Minnesota

CITY           SKY/WX    TMP DP  RH WIND       PRES   REMARKS
PRINCETON      LGT RAIN  46  34  61 CALM      29.93R
MORA           CLOUDY    43  34  70 E7        29.94F
CAMBRIDGE      DRIZZLE   46  34  61 E7        29.91F
RUSH CITY      CLOUDY    44  35  72 NE7       29.94F
MOOSE LAKE     DRIZZLE   43  32  65 CALM      29.92S
HINCKLEY       DRIZZLE   41  37  87 E6        29.95F
CLOQUET        CLOUDY    45  23  42 S5        29.91F
MCGREGOR       CLOUDY    41  34  75 SW8       29.92F
$$
MNZ071>073-080-081-089-090-097-098-301800-
   Southwest Minnesota

CITY           SKY/WX    TMP DP  RH WIND       PRES   REMARKS
MONTEVIDEO     MOSUNNY   66  34  30 NW10G17   29.84F
GRANITE FALLS  MOSUNNY   67  31  26 W20       29.86F
CANBY          SUNNY     65  26  23 W16       29.86F
MARSHALL       SUNNY     63  25  23 W22       29.87F
REDWOOD FALLS  MOSUNNY   65  26  23 W15       29.86F
OLIVIA         PTSUNNY   54  32  43 CALM      29.86F
PIPESTONE      PTSUNNY   61  21  21 W12G18    29.89F
WINDOM         MOSUNNY   66  19  16 SW18      29.88F
WORTHINGTON    MOSUNNY   63  23  22 SW23G29   29.90F
JACKSON        MOSUNNY   64  18  16 SW17G26   29.90F
TRACY          MOSUNNY   64  27  25 W20       29.88S
SLAYTON        PTSUNNY   60  16  18 W22       29.89F
$$
MNZ065>067-074>077-082>085-091>093-301800-
   South Central Minnesota

CITY           SKY/WX    TMP DP  RH WIND       PRES   REMARKS
MANKATO        CLOUDY    55  34  44 SW3       29.90F
NEW ULM        PTSUNNY   61  27  27 SW6       29.87F
FAIRMONT       PTSUNNY   64  19  17 W18G31    29.90F
GLENCOE        CLOUDY    47  35  64 E6        29.90F
FARIBAULT      CLOUDY    48  28  46 E5        29.93F
OWATONNA       CLOUDY    50  28  43 E5        29.92F
WASECA         CLOUDY    52  34  50 CALM      29.93F
ALBERT LEA       N/A    N/A N/A N/A MISG        N/A
$$
MNZ078>079-086>088-094>096-301800-
   Southeast Minnesota

CITY           SKY/WX    TMP DP  RH WIND       PRES   REMARKS
ROCHESTER      CLOUDY    51  33  50 CALM      29.96F
RED WING       CLOUDY    46  28  49 SE3       29.96F
STANTON        CLOUDY    50  31  47 NE8       29.92F
DODGE CENTER   CLOUDY    48  36  61 CALM      29.95S
WINONA         CLOUDY    48  28  46 W5        29.99S
AUSTIN         CLOUDY    55  36  47 SW8       29.93F
PRESTON        CLOUDY    52  32  47 W6        29.96F
$$
ABBREVIATIONS USED IN REMARKS
   TC - TEMPERATURES IN CELSIUS
  WCI - WIND CHILL INDEX
   HX - HEAT INDEX
  VSB - VISIBILITY
$$



USA.gov is the U.S. government's official web portal to all federal, state and local government web resources and services.